Weather in Selden

Austria     46°57′56″N   11°00′26″E
temp.,
°C
wind,
m/s
gust,
m/s
humid.,
%
clouds,
%
prec.,
mm/h
press.,
hPa
HPBL,
m
29 june, wed
wed2923:00+7sse558310 0.1 102050
02:00+8se4590100 0.3 101985
05:00+7sse3384100 1.6 101751
08:00+10e1173100 1.6 1016307
11:00+9e117897 1.0 1016489
14:00+10ene0181100 1.9 1016383
17:00+9ene118796 1.1 1017215
20:00+10nw118558 2.1 1016203
30 june, thu
thu3023:00+6wsw119757 0.1 101826
02:00+6ssw119531 0.1 101847
05:00+5s22904 0.0 101610
08:00+11sse22760 0.0 1015310
11:00+14se226157 0.1 10141359
14:00+14se336552 3.6 1014783
17:00+14sse436251 5.4 1013644
20:00+11sse338254 8.7 1015115
1 july, fri
fri123:00+8s559222 1.3 101878
02:00+7s449099 1.3 101779
05:00+7sse449344 0.0 1017114
08:00+9se348571 0.2 1016467
11:00+10ene238254 1.4 1016689
14:00+7nnw439295 4.3 1019404
17:00+3nnw3398100 5.2 1023259
20:00+4nw219342 6.3 1023182
2 july, sat
sat223:00+3sw119018 0.0 102418
02:00+2sw00850 0.0 102410
05:00+3s11790 0.0 102310
08:00+10sse33640 0.0 1023248
11:00+14se12470 0.0 1022998
14:00+17ene12462 0.0 10211631
17:00+17e224967 0.0 10211471
20:00+14ese226571 0.0 102236
3 july, sun
sun323:00+9s337625 0.0 102411
02:00+8wnw1181100 0.0 102410
05:00+6wsw11861 0.2 102511
08:00+13nnw12615 0.2 1024228
11:00+16n22401 0.0 10231569
14:00+18n343592 0.0 10222819
17:00+18nne343683 0.0 10212193
20:00+14e1170100 1.0 102331